#timestamp,LO_Frequency,Hit,StdDev 
1599256815.2,286047000.4,N
1599256835.9,286047002.8,N
1599256855.7,286047000.3,N
1599256875.6,286047001.1,N
1599256895.4,286047000.8,N
1599256915.2,286047001.2,N
1599256935.1,286047000.5,N
1599256936.0,286047000.5,N
1599256955.8,286047001.9,N
1599256975.7,286047002.3,N
1599256995.5,286047002.6,N
1599257015.3,286047002.5,N
1599257035.2,286047001.0,N
1599257055.0,286047000.5,N
1599257055.9,286047000.5,N
1599257075.8,286047001.2,N
1599257095.6,286046998.5,N
1599257115.4,286047000.8,N
1599257135.3,286047000.2,N
1599257155.1,286047002.8,N
1599257175.8,286047000.6,N
1599257195.7,286047006.4,Y
1599257215.5,286047007.6,P
1599257235.4,286047003.8,N
1599257255.2,286047001.4,N
1599257275.0,286047002.1,N
1599257275.9,286047002.1,N
1599257295.8,286047001.3,N
1599257315.6,286047001.7,N
1599257335.4,286047003.7,N
1599257355.3,286047004.9,N
1599257375.1,286047005.5,N
1599257395.9,286047005.9,N
1599257415.7,286047003.6,N
1599257435.5,286047003.8,N
1599257455.4,286047004.3,N
1599257475.2,286047002.0,N
1599257495.0,286047002.5,N
1599257495.9,286047002.5,N
1599257515.8,286047001.9,N
1599257535.6,286047003.0,N
1599257555.5,286047004.2,N
1599257575.3,286047002.4,N
1599257595.1,286047000.9,N
1599257615.9,286047001.1,N
1599257635.7,286047000.7,N
1599257655.5,286046998.2,N
1599257675.4,286047000.9,N
1599257695.2,286047000.6,N
1599257715.1,286046999.7,N
1599257716.0,286046999.7,N
1599257735.8,286047002.3,N
1599257755.6,286047001.6,N
1599257775.5,286047003.0,N
1599257795.3,286047005.4,Y
1599257815.1,286047008.8,P
1599257835.9,286047011.5,P
1599257855.7,286047009.7,N
1599257875.6,286047008.3,N
1599257895.4,286047006.6,N
1599257915.2,286047005.8,N
1599257935.1,286047005.2,N
1599257936.0,286047005.2,N
1599257955.8,286047005.7,N
1599257975.6,286047003.3,N
1599257995.5,286047006.0,N
1599258015.3,286047006.0,N
1599258035.2,286047003.9,N
1599258055.9,286047001.3,N
1599258075.7,286047001.8,N
1599258095.6,286047001.8,N
1599258115.4,286047001.9,N
1599258135.2,286047002.4,N
1599258155.1,286047000.5,N
1599258156.0,286047000.5,N
1599258175.8,286047001.0,N
1599258195.7,286047000.6,N
1599258215.5,286047000.8,N
1599258235.3,286047000.3,N
1599258255.2,286047000.5,N
1599258275.9,286047000.0,N
1599258295.7,286047001.9,N
1599258315.6,286047002.4,N
1599258335.4,286047000.7,N
1599258355.3,286046998.4,N
1599258375.1,286046998.3,N
1599258376.0,286046998.3,N
1599258395.8,286046998.9,N
1599258415.7,286046998.3,N
1599258435.5,286046999.6,N
1599258455.4,286046997.0,N
1599258475.2,286046996.9,N
1599258495.0,286046999.1,N
1599258495.9,286046999.1,N
1599258515.8,286046999.1,N
1599258535.6,286047000.8,N
1599258555.5,286047004.2,N
1599258575.3,286047001.5,N
1599258595.1,286046999.8,N
1599258615.9,286047000.4,N
1599258635.7,286046998.1,N
1599258655.5,286046999.5,N
1599258675.4,286046999.3,N
1599258695.2,286046996.5,N
1599258715.1,286046998.8,N
1599258716.0,286046998.8,N
1599258735.8,286046999.0,N
1599258755.6,286046998.5,N
1599258775.5,286046998.2,N
1599258795.3,286047000.7,N
1599258815.2,286047000.8,N
1599258835.9,286046997.0,N
1599258855.7,286046999.2,N
1599258875.6,286046998.8,N
1599258895.4,286046998.1,N
1599258915.2,286046999.2,N
1599258935.1,286046999.2,N
1599258936.0,286046999.2,N
1599258955.8,286046996.6,N
1599258975.7,286046999.5,N
1599258995.5,286046998.8,N
1599259015.3,286046999.0,N
1599259035.2,286046996.5,N
1599259055.0,286046996.9,N
1599259055.9,286046996.9,N
1599259075.8,286046999.5,N
1599259095.6,286046999.3,N
1599259115.4,286046998.9,N
1599259135.3,286046996.6,N
1599259155.1,286046996.6,N
1599259175.8,286046996.5,N
1599259195.7,286046999.6,N
1599259215.5,286046999.2,N
1599259235.4,286046998.8,N
1599259255.2,286047001.2,N
1599259275.0,286046998.2,N
1599259275.9,286046998.2,N
1599259295.8,286046999.1,N
1599259315.6,286046999.3,N
1599259335.5,286046996.7,N
1599259355.3,286046998.9,N
1599259375.1,286046996.7,N
1599259395.9,286046999.6,N
1599259415.7,286046997.7,N
1599259435.6,286046997.8,N
1599259455.4,286046997.6,N
1599259475.2,286046997.8,N
1599259495.1,286046994.9,Y
1599259496.0,286046994.9,P
1599259515.8,286046999.0,N
1599259535.7,286046999.1,N
1599259555.5,286046997.0,N
1599259575.3,286046999.5,N
1599259595.2,286046996.6,N
1599259615.0,286046998.6,N
1599259615.9,286046998.6,N
1599259635.8,286046999.2,N
1599259655.6,286046998.8,N
1599259675.4,286046999.4,N
1599259695.3,286046999.1,N
1599259715.1,286047001.0,N
1599259735.9,286046998.4,N
1599259755.7,286046998.5,N
1599259775.5,286046998.3,N
1599259795.4,286047000.7,N
1599259815.2,286047000.9,N
1599259835.0,286047002.5,N
1599259836.0,286047002.5,N
1599259855.8,286047002.5,N
1599259875.6,286047001.1,N
1599259895.5,286046998.3,N
1599259915.3,286047001.2,N
1599259935.1,286046998.5,N
1599259955.9,286046998.6,N
1599259975.7,286046998.9,N
1599259995.6,286046998.6,N
1599260015.4,286047000.7,N
1599260035.2,286046998.9,N
1599260055.1,286046999.0,N
1599260056.0,286046999.0,N
1599260075.8,286046998.7,N
1599260095.7,286046998.8,N
1599260115.5,286046999.4,N
1599260135.3,286046999.3,N
1599260155.2,286046999.2,N
1599260175.9,286046999.0,N
1599260195.7,286046999.5,N
1599260215.6,286046999.1,N
1599260235.4,286046999.1,N
1599260255.3,286046999.3,N
1599260275.1,286046998.2,N
1599260276.0,286046998.2,N
1599260295.8,286046998.2,N
1599260315.7,286046998.7,N
1599260335.5,286046999.3,N
1599260355.3,286046998.4,N
1599260375.2,286046998.8,N
1599260395.0,286046999.1,N
1599260395.9,286046999.1,N
